| time (UTC) | temp C | wind direction | speed KPH | gust KPH | rain 1hr cm | rain 24hr cm | rain mn cm | humidity % | barometer mb |
| 20260505051504 | 18 | 230 | 9.7 | 12.9 | 0.00 | 0.00 | 0.00 | 59 | 1001.3 |
| 20260505051002 | 18 | 204 | 11.3 | 12.9 | 0.00 | 0.00 | 0.00 | 59 | 1001.2 |
| 20260505050500 | 18 | 206 | 14.5 | 17.7 | 0.00 | 0.00 | 0.00 | 57 | 1001.5 |
| 20260505041427 | 18 | 204 | 11.3 | 16.1 | 0.00 | 0.00 | 0.00 | 53 | 1001.6 |
| 20260505040925 | 18 | 212 | 6.4 | 9.7 | 0.00 | 0.00 | 0.00 | 54 | 1001.5 |
| 20260505040422 | 18 | 210 | 11.3 | 14.5 | 0.00 | 0.00 | 0.00 | 55 | 1001.8 |
| 20260505035919 | 18 | 229 | 4.8 | 6.4 | 0.00 | 0.00 | 0.00 | 53 | 1001.8 |
| 20260505035415 | 18 | 191 | 9.7 | 12.9 | 0.00 | 0.00 | 0.00 | 53 | 1002.2 |
| 20260505034912 | 18 | 211 | 6.4 | 9.7 | 0.00 | 0.00 | 0.00 | 51 | 1002.1 |
| 20260505034409 | 18 | 196 | 8.0 | 9.7 | 0.00 | 0.00 | 0.00 | 53 | 1002.1 |
| 20260505033906 | 18 | 216 | 9.7 | 11.3 | 0.00 | 0.00 | 0.00 | 53 | 1001.9 |
| 20260505033402 | 18 | 228 | 8.0 | 9.7 | 0.00 | 0.00 | 0.00 | 48 | 1002.2 |
| 20260505032901 | 18 | 191 | 14.5 | 17.7 | 0.00 | 0.00 | 0.00 | 47 | 1002.0 |
| 20260505032357 | 17 | 232 | 4.8 | 4.8 | 0.00 | 0.00 | 0.00 | 48 | 1001.8 |
| 20260505031854 | 17 | 174 | 3.2 | 3.2 | 0.00 | 0.00 | 0.00 | 49 | 1001.7 |
| 20260505031351 | 17 | 198 | 3.2 | 3.2 | 0.00 | 0.00 | 0.00 | 49 | 1001.6 |
| 20260505030848 | 16 | 201 | 4.8 | 4.8 | 0.00 | 0.00 | 0.00 | 48 | 1001.7 |
| 20260505030344 | 16 | 221 | 1.6 | 3.2 | 0.00 | 0.00 | 0.00 | 53 | 1001.8 |
| 20260505025839 | 16 | 211 | 3.2 | 3.2 | 0.00 | 0.00 | 0.00 | 53 | 1001.7 |
| 20260505025337 | 16 | 200 | 4.8 | 4.8 | 0.00 | 0.00 | 0.00 | 53 | 1001.7 |
| 20260505024836 | 16 | 216 | 1.6 | 3.2 | 0.00 | 0.00 | 0.00 | 53 | 1001.7 |
| 20260505024333 | 15 | 219 | 1.6 | 1.6 | 0.00 | 0.00 | 0.00 | 56 | 1001.6 |
| 20260505023830 | 16 | 221 | 1.6 | 1.6 | 0.00 | 0.00 | 0.00 | 56 | 1001.7 |
| 20260505023327 | 16 | 198 | 1.6 | 3.2 | 0.00 | 0.00 | 0.00 | 53 | 1001.7 |
| 20260505022824 | 15 | 208 | 3.2 | 3.2 | 0.00 | 0.00 | 0.00 | 56 | 1001.8 |
| 20260505022321 | 15 | 218 | 1.6 | 1.6 | 0.00 | 0.00 | 0.00 | 57 | 1001.9 |
| 20260505021818 | 15 | 204 | 3.2 | 3.2 | 0.00 | 0.00 | 0.00 | 57 | 1001.8 |
| 20260505021315 | 15 | 203 | 1.6 | 3.2 | 0.00 | 0.00 | 0.00 | 60 | 1002.0 |
| 20260505020810 | 15 | 229 | 1.6 | 1.6 | 0.00 | 0.00 | 0.00 | 62 | 1002.2 |
| 20260505020306 | 14 | 209 | 3.2 | 3.2 | 0.00 | 0.00 | 0.00 | 63 | 1002.1 |
| 20260505015803 | 14 | 220 | 0.0 | 0.0 | 0.00 | 0.00 | 0.00 | 64 | 1002.2 |
| 20260505015300 | 14 | 217 | 0.0 | 0.0 | 0.00 | 0.00 | 0.00 | 62 | 1002.4 |
| 20260505014758 | 14 | 220 | 0.0 | 0.0 | 0.00 | 0.00 | 0.00 | 65 | 1002.4 |
| 20260505014255 | 14 | 241 | 0.0 | 0.0 | 0.00 | 0.00 | 0.00 | 62 | 1002.4 |
| 20260505013751 | 15 | 229 | 0.0 | 0.0 | 0.00 | 0.00 | 0.00 | 63 | 1002.2 |
| 20260505013248 | 15 | 221 | 0.0 | 0.0 | 0.00 | 0.00 | 0.00 | 62 | 1002.1 |
| 20260505012747 | 15 | 231 | 0.0 | 0.0 | 0.00 | 0.00 | 0.00 | 59 | 1002.3 |
| 20260505012244 | 15 | 223 | 0.0 | 0.0 | 0.00 | 0.00 | 0.00 | 57 | 1002.2 |
| 20260505011739 | 15 | 226 | 0.0 | 0.0 | 0.00 | 0.00 | 0.00 | 57 | 1002.1 |
| 20260505011237 | 15 | 219 | 0.0 | 0.0 | 0.00 | 0.00 | 0.00 | 59 | 1002.0 |
| 20260505010732 | 15 | 221 | 0.0 | 0.0 | 0.00 | 0.00 | 0.00 | 57 | 1002.0 |
| 20260505010228 | 16 | 232 | 0.0 | 0.0 | 0.00 | 0.00 | 0.00 | 57 | 1001.8 |
| 20260505005725 | 16 | 225 | 0.0 | 0.0 | 0.00 | 0.00 | 0.00 | 57 | 1001.8 |
| 20260505005222 | 16 | 224 | 0.0 | 0.0 | 0.00 | 0.00 | 0.00 | 55 | 1001.8 |
| 20260505004719 | 16 | 231 | 0.0 | 0.0 | 0.00 | 0.00 | 0.00 | 53 | 1001.9 |
| 20260505004216 | 17 | 234 | 0.0 | 0.0 | 0.00 | 0.00 | 0.00 | 52 | 1001.9 |
| 20260505003713 | 17 | 229 | 0.0 | 0.0 | 0.00 | 0.00 | 0.00 | 51 | 1001.9 |
| 20260505003211 | 17 | 227 | 0.0 | 0.0 | 0.00 | 0.00 | 0.00 | 50 | 1001.9 |
| 20260505002707 | 17 | 225 | 0.0 | 0.0 | 0.00 | 0.00 | 0.00 | 50 | 1001.9 |
| 20260505002205 | 17 | 235 | 0.0 | 0.0 | 0.00 | 0.00 | 0.00 | 51 | 1001.8 |
| 20260505001701 | 18 | 238 | 0.0 | 0.0 | 0.00 | 0.00 | 0.00 | 48 | 1002.0 |
| 20260505001159 | 19 | 230 | 0.0 | 0.0 | 0.00 | 0.00 | 0.00 | 44 | 1002.0 |
| 20260505000656 | 19 | 232 | 0.0 | 0.0 | 0.00 | 0.00 | 0.00 | 44 | 1001.9 |
| 20260505000154 | 20 | 229 | 0.0 | 0.0 | 0.00 | 0.00 | 0.00 | 43 | 1001.8 |
| 20260504235650 | 20 | 243 | 0.0 | 0.0 | 0.00 | 0.00 | 0.00 | 39 | 1001.7 |
| 20260504235146 | 21 | 237 | 0.0 | 0.0 | 0.00 | 0.00 | 0.00 | 40 | 1001.7 |
| 20260504234644 | 21 | 254 | 1.6 | 1.6 | 0.00 | 0.00 | 0.00 | 37 | 1001.7 |
| 20260504234141 | 21 | 276 | 4.8 | 4.8 | 0.00 | 0.00 | 0.00 | 36 | 1001.7 |
| 20260504233637 | 21 | 257 | 1.6 | 1.6 | 0.00 | 0.00 | 0.00 | 37 | 1001.8 |
| 20260504233133 | 22 | 242 | 0.0 | 0.0 | 0.00 | 0.00 | 0.00 | 34 | 1001.7 |
| 20260504232631 | 22 | 239 | 3.2 | 4.8 | 0.00 | 0.00 | 0.00 | 34 | 1001.6 |
| 20260504232127 | 22 | 239 | 3.2 | 4.8 | 0.00 | 0.00 | 0.00 | 34 | 1001.6 |
| 20260504231624 | 22 | 239 | 1.6 | 3.2 | 0.00 | 0.00 | 0.00 | 35 | 1001.5 |
| 20260504231120 | 22 | 255 | 4.8 | 4.8 | 0.00 | 0.00 | 0.00 | 35 | 1001.4 |
| 20260504230616 | 23 | 220 | 4.8 | 6.4 | 0.00 | 0.00 | 0.00 | 33 | 1001.6 |
| 20260504230116 | 22 | 238 | 6.4 | 6.4 | 0.00 | 0.00 | 0.00 | 32 | 1001.8 |
| 20260504225613 | 22 | 235 | 6.4 | 9.7 | 0.00 | 0.00 | 0.00 | 32 | 1001.5 |
| 20260504225109 | 22 | 222 | 6.4 | 6.4 | 0.00 | 0.00 | 0.00 | 33 | 1001.4 |
| 20260504224606 | 23 | 254 | 4.8 | 6.4 | 0.00 | 0.00 | 0.00 | 33 | 1001.6 |
| 20260504224103 | 23 | 198 | 4.8 | 4.8 | 0.00 | 0.00 | 0.00 | 33 | 1001.5 |
| 20260504223600 | 23 | 241 | 6.4 | 6.4 | 0.00 | 0.00 | 0.00 | 32 | 1001.3 |
| 20260504223055 | 23 | 225 | 6.4 | 6.4 | 0.00 | 0.00 | 0.00 | 32 | 1001.5 |
| 20260504222553 | 23 | 227 | 9.7 | 14.5 | 0.00 | 0.00 | 0.00 | 31 | 1001.3 |
| 20260504222050 | 23 | 216 | 6.4 | 6.4 | 0.00 | 0.00 | 0.00 | 32 | 1001.6 |
| 20260504221547 | 23 | 240 | 4.8 | 4.8 | 0.00 | 0.00 | 0.00 | 33 | 1001.5 |
| 20260504221044 | 23 | 211 | 11.3 | 12.9 | 0.00 | 0.00 | 0.00 | 32 | 1001.4 |
| 20260504220540 | 23 | 221 | 6.4 | 6.4 | 0.00 | 0.00 | 0.00 | 32 | 1001.6 |
| 20260504220037 | 23 | 210 | 12.9 | 16.1 | 0.00 | 0.00 | 0.00 | 32 | 1001.6 |
| 20260504215534 | 23 | 239 | 9.7 | 16.1 | 0.00 | 0.00 | 0.00 | 32 | 1001.4 |
| 20260504215032 | 23 | 159 | 4.8 | 4.8 | 0.00 | 0.00 | 0.00 | 35 | 1001.9 |
| 20260504214527 | 23 | 189 | 8.0 | 9.7 | 0.00 | 0.00 | 0.00 | 35 | 1001.8 |
| 20260504214024 | 23 | 208 | 6.4 | 6.4 | 0.00 | 0.00 | 0.00 | 35 | 1001.8 |
| 20260504213521 | 23 | 217 | 6.4 | 9.7 | 0.00 | 0.00 | 0.00 | 34 | 1001.8 |
| 20260504213018 | 23 | 210 | 9.7 | 16.1 | 0.00 | 0.00 | 0.00 | 34 | 1001.6 |
| 20260504212513 | 23 | 197 | 6.4 | 6.4 | 0.00 | 0.00 | 0.00 | 34 | 1001.8 |
| 20260504212011 | 23 | 230 | 12.9 | 16.1 | 0.00 | 0.00 | 0.00 | 32 | 1001.7 |
| 20260504211508 | 23 | 214 | 6.4 | 6.4 | 0.00 | 0.00 | 0.00 | 36 | 1001.7 |
| 20260504211005 | 23 | 227 | 6.4 | 9.7 | 0.00 | 0.00 | 0.00 | 35 | 1001.8 |
| 20260504210502 | 23 | 214 | 8.0 | 11.3 | 0.00 | 0.00 | 0.00 | 34 | 1002.0 |
| 20260504205958 | 23 | 205 | 8.0 | 11.3 | 0.00 | 0.00 | 0.00 | 36 | 1001.9 |
| 20260504205456 | 22 | 200 | 6.4 | 9.7 | 0.00 | 0.00 | 0.00 | 35 | 1002.0 |
| 20260504204954 | 22 | 229 | 8.0 | 9.7 | 0.00 | 0.00 | 0.00 | 37 | 1002.1 |
| 20260504204452 | 23 | 240 | 12.9 | 16.1 | 0.00 | 0.00 | 0.00 | 35 | 1002.2 |
| 20260504203951 | 23 | 220 | 12.9 | 14.5 | 0.00 | 0.00 | 0.00 | 35 | 1002.1 |
| 20260504203448 | 23 | 226 | 8.0 | 11.3 | 0.00 | 0.00 | 0.00 | 35 | 1002.2 |
| 20260504202944 | 24 | 225 | 6.4 | 6.4 | 0.00 | 0.00 | 0.00 | 33 | 1002.2 |
| 20260504202441 | 23 | 197 | 12.9 | 16.1 | 0.00 | 0.00 | 0.00 | 35 | 1002.3 |
| 20260504201937 | 23 | 249 | 11.3 | 14.5 | 0.00 | 0.00 | 0.00 | 34 | 1002.3 |
| 20260504201435 | 23 | 207 | 4.8 | 4.8 | 0.00 | 0.00 | 0.00 | 38 | 1002.4 |
| 20260504200932 | 23 | 254 | 9.7 | 14.5 | 0.00 | 0.00 | 0.00 | 34 | 1002.4 |
| 20260504200429 | 23 | 269 | 16.1 | 22.5 | 0.00 | 0.00 | 0.00 | 34 | 1002.4 |
| 20260504195926 | 22 | 198 | 16.1 | 20.9 | 0.00 | 0.00 | 0.00 | 35 | 1002.7 |
| 20260504195422 | 23 | 183 | 9.7 | 12.9 | 0.00 | 0.00 | 0.00 | 34 | 1002.5 |
| 20260504194918 | 23 | 191 | 8.0 | 9.7 | 0.00 | 0.00 | 0.00 | 36 | 1002.6 |
| 20260504194414 | 23 | 207 | 6.4 | 9.7 | 0.00 | 0.00 | 0.00 | 37 | 1002.8 |
| 20260504193910 | 23 | 234 | 12.9 | 16.1 | 0.00 | 0.00 | 0.00 | 34 | 1002.8 |
| 20260504193408 | 23 | 209 | 11.3 | 17.7 | 0.00 | 0.00 | 0.00 | 33 | 1003.0 |
| 20260504192907 | 23 | 235 | 9.7 | 12.9 | 0.00 | 0.00 | 0.00 | 33 | 1003.0 |
| 20260504192403 | 22 | 227 | 14.5 | 16.1 | 0.00 | 0.00 | 0.00 | 33 | 1003.0 |
| 20260504191902 | 23 | 240 | 22.5 | 33.8 | 0.00 | 0.00 | 0.00 | 36 | 1003.1 |
| 20260504191400 | 23 | 228 | 8.0 | 11.3 | 0.00 | 0.00 | 0.00 | 38 | 1003.2 |
| 20260504190855 | 23 | 241 | 8.0 | 17.7 | 0.00 | 0.00 | 0.00 | 39 | 1003.2 |
| 20260504190351 | 23 | 280 | 8.0 | 11.3 | 0.00 | 0.00 | 0.00 | 35 | 1003.2 |
| 20260504185848 | 22 | 232 | 11.3 | 12.9 | 0.00 | 0.00 | 0.00 | 37 | 1003.2 |
| 20260504185345 | 22 | 229 | 11.3 | 14.5 | 0.00 | 0.00 | 0.00 | 38 | 1003.4 |
| 20260504184841 | 22 | 202 | 12.9 | 14.5 | 0.00 | 0.00 | 0.00 | 40 | 1003.5 |
| 20260504184337 | 22 | 228 | 11.3 | 16.1 | 0.00 | 0.00 | 0.00 | 40 | 1003.6 |
| 20260504183833 | 22 | 243 | 12.9 | 14.5 | 0.00 | 0.00 | 0.00 | 41 | 1003.7 |
| 20260504183330 | 22 | 221 | 12.9 | 16.1 | 0.00 | 0.00 | 0.00 | 39 | 1003.6 |
| 20260504182828 | 22 | 227 | 6.4 | 11.3 | 0.00 | 0.00 | 0.00 | 42 | 1003.7 |
| 20260504182325 | 22 | 254 | 6.4 | 9.7 | 0.00 | 0.00 | 0.00 | 44 | 1003.8 |
| 20260504181822 | 22 | 211 | 11.3 | 12.9 | 0.00 | 0.00 | 0.00 | 41 | 1003.8 |
| 20260504181319 | 22 | 230 | 22.5 | 30.6 | 0.00 | 0.00 | 0.00 | 39 | 1003.9 |
| 20260504180818 | 21 | 225 | 9.7 | 11.3 | 0.00 | 0.00 | 0.00 | 42 | 1003.9 |
| 20260504180316 | 22 | 232 | 6.4 | 6.4 | 0.00 | 0.00 | 0.00 | 41 | 1004.2 |
| 20260504175814 | 22 | 273 | 6.4 | 11.3 | 0.00 | 0.00 | 0.00 | 41 | 1003.8 |
| 20260504175311 | 22 | 248 | 6.4 | 9.7 | 0.00 | 0.00 | 0.00 | 44 | 1003.9 |
| 20260504174809 | 22 | 240 | 16.1 | 22.5 | 0.00 | 0.00 | 0.00 | 42 | 1004.0 |
| 20260504174306 | 21 | 172 | 6.4 | 9.7 | 0.00 | 0.00 | 0.00 | 44 | 1004.0 |
| 20260504173802 | 21 | 264 | 11.3 | 14.5 | 0.00 | 0.00 | 0.00 | 44 | 1003.9 |
| 20260504173259 | 21 | 216 | 14.5 | 17.7 | 0.00 | 0.00 | 0.00 | 42 | 1004.0 |
| 20260504172756 | 21 | 226 | 14.5 | 16.1 | 0.00 | 0.00 | 0.00 | 43 | 1004.3 |
| 20260504172253 | 21 | 236 | 6.4 | 9.7 | 0.00 | 0.00 | 0.00 | 44 | 1004.2 |
| 20260504171749 | 21 | 232 | 9.7 | 14.5 | 0.00 | 0.00 | 0.00 | 46 | 1004.1 |
| 20260504171246 | 21 | 244 | 6.4 | 9.7 | 0.00 | 0.00 | 0.00 | 45 | 1004.4 |
| 20260504170743 | 21 | 217 | 11.3 | 16.1 | 0.00 | 0.00 | 0.00 | 45 | 1004.3 |
| 20260504170240 | 20 | 243 | 9.7 | 9.7 | 0.00 | 0.00 | 0.00 | 48 | 1004.3 |
| 20260504160159 | 19 | 218 | 11.3 | 12.9 | 0.00 | 0.00 | 0.00 | 45 | 1004.8 |
| 20260504151126 | 18 | 196 | 8.0 | 14.5 | 0.00 | 0.00 | 0.00 | 48 | 1005.2 |
| 20260504150624 | 18 | 229 | 6.4 | 9.7 | 0.00 | 0.00 | 0.00 | 50 | 1004.9 |
| 20260504150121 | 18 | 333 | 9.7 | 12.9 | 0.00 | 0.00 | 0.00 | 46 | 1005.1 |
| 20260504141049 | 17 | 193 | 8.0 | 11.3 | 0.00 | 0.00 | 0.00 | 49 | 1005.1 |
| 20260504140546 | 16 | 227 | 6.4 | 14.5 | 0.00 | 0.00 | 0.00 | 49 | 1005.1 |
| 20260504130510 | 15 | 202 | 6.4 | 6.4 | 0.00 | 0.00 | 0.00 | 50 | 1005.8 |
| 20260504110357 | 11 | 199 | 9.7 | 11.3 | 0.00 | 0.00 | 0.00 | 55 | 1006.0 |
| 20260504100315 | 11 | 196 | 4.8 | 6.4 | 0.00 | 0.00 | 0.00 | 57 | 1005.8 |
| 20260504081708 | 10 | 204 | 4.8 | 6.4 | 0.00 | 0.00 | 0.00 | 57 | 1006.3 |
| 20260504081204 | 10 | 228 | 6.4 | 9.7 | 0.00 | 0.00 | 0.00 | 58 | 1006.2 |
| 20260504080701 | 10 | 220 | 6.4 | 6.4 | 0.00 | 0.00 | 0.00 | 57 | 1006.3 |
| 20260504080157 | 10 | 208 | 3.2 | 4.8 | 0.00 | 0.00 | 0.00 | 59 | 1006.4 |
| 20260504070125 | 11 | 226 | 8.0 | 9.7 | 0.00 | 0.00 | 0.00 | 56 | 1006.8 |